Flag for Japan Weather past 2 weeks in Suzuka, Japan

Now
71 °F

Mild.


Feels Like: 75 °F
Forecast: 60 / 71 °F
Wind: 3 mph from East

Location: Tsu

Current Time: May 23, 2015 at 5:56:58 PM

Latest Report: May 23, 2015 at 5:00 PM


Visibility: N/A

Pressure: 29.88 "Hg

Humidity: 64%

Dew point: 58 °F

Location of SuzukaLocation

Historic Weather in Suzuka — Graph

°F

Suzuka temperature yesterday

Maximum temperature yesterday: 75 °F (at 5:00 PM)
Minimum temperature yesterday: 57 °F (at 4:00 AM)
Average temperature yesterday: 66 °F

Past Weeks' High & Low Weather Summary

 TemperatureHumidityPressure
High84 °F (May 20, 3:00 PM)97% (May 12, 5:00 PM)30.24 "Hg (May 12, 5:00 PM)
Low54 °F (May 11, 5:00 AM)17% (May 17, 1:00 PM)29.47 "Hg (May 12, 8:00 PM)
Average68 °F61%29.86 "Hg
* Reported May 8 4:00 PM — May 23 4:00 PM, Suzuka, Weather by CustomWeather, © 2015

Note: Actual official high and low records may vary slightly from our data, if they occured in-between our weather recording intervals... More about our weather records

Advertising

Suzuka weather history for previous 24 hours

 ConditionsComfort  
Time TempWeatherWind HumidityBarometerVisibility
4:00 PM
Sat, May 23
72 °FMild.2 mph47%29.89 "HgN/A
3:00 PM71 °FOvercast.5 mph52%29.89 "Hg9 mi
2:00 PM72 °FMild.2 mph52%29.91 "HgN/A
1:00 PM70 °FMild.3 mph61%29.92 "HgN/A
12:00 PM70 °FMild.3 mph58%29.93 "HgN/A
11:00 AM69 °FMild.6 mph63%29.95 "HgN/A
10:00 AM69 °FMild.6 mph57%29.96 "HgN/A
9:00 AM69 °FOvercast.5 mph55%29.97 "Hg9 mi
8:00 AM69 °FMild.3 mph54%29.99 "HgN/A
7:00 AM66 °FMild.5 mph60%29.98 "HgN/A
5:00 AM61 °FCool.5 mph70%29.98 "HgN/A
4:00 AM63 °FMild.5 mph68%29.97 "HgN/A
3:00 AM64 °FMild.5 mph68%29.96 "HgN/A
2:00 AM64 °FMild.5 mph62%29.95 "HgN/A
1:00 AM64 °FMild.3 mph67%29.95 "HgN/A
12:00 AM65 °FMild.3 mph67%29.96 "HgN/A
11:00 PM
Fri, May 22
66 °FMild.3 mph67%29.96 "HgN/A
10:00 PM67 °FMild.5 mph65%29.96 "HgN/A
9:00 PM69 °FOvercast.3 mph61%29.95 "Hg12 mi
8:00 PM72 °FMild.3 mph50%29.94 "HgN/A
7:00 PM72 °FMild.8 mph55%29.93 "HgN/A
6:00 PM74 °FMild.6 mph52%29.92 "HgN/A
5:00 PM75 °FMild.7 mph53%29.92 "HgN/A
Weather by CustomWeather, © 2015

See weather overviewHow to use our weather pages